| time (UTC) | temp C | wind direction | speed KPH | gust KPH | rain 1hr cm | rain 24hr cm | rain mn cm | humidity % | barometer mb |
| 20260905032204 | 17 | 81 | 0.0 | 0.0 | 0.00 | 0.00 | 0.00 | 90 | 1008.6 |
| 20260905031703 | 17 | 81 | 0.0 | 0.0 | 0.00 | 0.00 | 0.00 | 90 | 1008.6 |
| 20260905031204 | 17 | 81 | 0.0 | 0.0 | 0.00 | 0.00 | 0.00 | 90 | 1008.6 |
| 20260905030703 | 17 | 81 | 0.0 | 0.0 | 0.00 | 0.00 | 0.00 | 90 | 1008.7 |
| 20260905025703 | 17 | 81 | 0.0 | 0.0 | 0.00 | 0.00 | 0.00 | 90 | 1008.9 |
| 20260905024203 | 17 | 81 | 0.0 | 0.0 | 0.00 | 0.00 | 0.00 | 89 | 1008.9 |
| 20260905023704 | 17 | 81 | 0.0 | 0.0 | 0.00 | 0.00 | 0.00 | 89 | 1008.9 |
| 20260905021704 | 18 | 81 | 0.0 | 0.0 | 0.00 | 0.03 | 0.00 | 88 | 1008.9 |
| 20260905020703 | 18 | 80 | 0.0 | 0.0 | 0.00 | 0.03 | 0.00 | 87 | 1009.0 |
| 20260905015703 | 18 | 80 | 0.0 | 0.0 | 0.00 | 0.03 | 0.00 | 87 | 1009.0 |
| 20260905015204 | 18 | 81 | 0.0 | 0.0 | 0.00 | 0.03 | 0.00 | 87 | 1009.0 |
| 20260905014704 | 18 | 81 | 0.0 | 0.0 | 0.00 | 0.03 | 0.00 | 87 | 1009.0 |
| 20260905013703 | 18 | 80 | 0.0 | 0.0 | 0.00 | 0.03 | 0.00 | 86 | 1009.0 |
| 20260905013204 | 18 | 81 | 0.0 | 0.0 | 0.00 | 0.03 | 0.00 | 88 | 1009.1 |
| 20260905011204 | 19 | 81 | 0.0 | 0.0 | 0.00 | 0.03 | 0.00 | 86 | 1009.1 |
| 20260905005705 | 20 | 81 | 0.0 | 0.0 | 0.00 | 0.03 | 0.00 | 84 | 1009.1 |
| 20260905005205 | 20 | 81 | 0.0 | 0.0 | 0.00 | 0.03 | 0.00 | 83 | 1009.0 |
| 20260905004205 | 20 | 81 | 0.0 | 0.0 | 0.00 | 0.03 | 0.00 | 84 | 1008.9 |
| 20260905002704 | 20 | 80 | 0.0 | 0.0 | 0.00 | 0.03 | 0.00 | 81 | 1008.9 |
| 20260905002205 | 20 | 81 | 0.0 | 0.0 | 0.00 | 0.03 | 0.00 | 81 | 1008.9 |
| 20260905001204 | 21 | 81 | 0.0 | 0.0 | 0.00 | 0.03 | 0.00 | 81 | 1008.8 |
| 20260904233205 | 22 | 80 | 0.0 | 3.2 | 0.00 | 0.03 | 0.00 | 80 | 1008.3 |
| 20260904232704 | 22 | 81 | 0.0 | 4.8 | 0.00 | 0.03 | 0.00 | 77 | 1008.3 |
| 20260904231204 | 23 | 74 | 0.0 | 0.0 | 0.00 | 0.03 | 0.00 | 78 | 1008.2 |
| 20260904225705 | 23 | 74 | 0.0 | 0.0 | 0.00 | 0.03 | 0.00 | 73 | 1008.2 |
| 20260904222704 | 25 | 74 | 0.0 | 0.0 | 0.00 | 0.03 | 0.00 | 69 | 1008.0 |
| 20260904222205 | 25 | 74 | 0.0 | 1.6 | 0.00 | 0.03 | 0.00 | 64 | 1008.0 |
| 20260904221205 | 25 | 74 | 0.0 | 1.6 | 0.00 | 0.03 | 0.00 | 64 | 1007.9 |
| 20260904220704 | 25 | 74 | 1.6 | 3.2 | 0.00 | 0.03 | 0.00 | 63 | 1007.9 |
| 20260904215704 | 25 | 76 | 1.6 | 4.8 | 0.00 | 0.03 | 0.00 | 65 | 1007.9 |
| 20260904215209 | 25 | 70 | 1.6 | 4.8 | 0.00 | 0.03 | 0.00 | 65 | 1007.9 |
| 20260904214204 | 25 | 117 | 0.0 | 1.6 | 0.00 | 0.03 | 0.00 | 65 | 1007.8 |
| 20260904213704 | 25 | 117 | 0.0 | 3.2 | 0.00 | 0.03 | 0.00 | 65 | 1007.8 |
| 20260904212205 | 25 | 236 | 1.6 | 4.8 | 0.00 | 0.03 | 0.00 | 69 | 1007.9 |
| 20260904211204 | 25 | 250 | 1.6 | 4.8 | 0.00 | 0.03 | 0.00 | 66 | 1007.9 |
| 20260904210705 | 25 | 252 | 1.6 | 9.7 | 0.00 | 0.03 | 0.00 | 66 | 1008.0 |
| 20260904205704 | 25 | 199 | 1.6 | 4.8 | 0.00 | 0.03 | 0.00 | 67 | 1007.9 |
| 20260904204704 | 25 | 230 | 0.0 | 4.8 | 0.00 | 0.03 | 0.00 | 67 | 1007.9 |
| 20260904204204 | 25 | 231 | 0.0 | 1.6 | 0.00 | 0.03 | 0.00 | 68 | 1007.9 |
| 20260904203705 | 26 | 231 | 0.0 | 4.8 | 0.00 | 0.03 | 0.00 | 65 | 1007.9 |
| 20260904201205 | 26 | 350 | 0.0 | 4.8 | 0.00 | 0.03 | 0.00 | 61 | 1008.1 |
| 20260904194705 | 26 | 293 | 1.6 | 4.8 | 0.00 | 0.03 | 0.00 | 60 | 1007.9 |
| 20260904193211 | 27 | 231 | 1.6 | 4.8 | 0.00 | 0.03 | 0.00 | 59 | 1007.9 |
| 20260904191705 | 27 | 38 | 1.6 | 8.0 | 0.00 | 0.03 | 0.00 | 57 | 1007.7 |
| 20260904191204 | 27 | 304 | 1.6 | 11.3 | 0.00 | 0.03 | 0.00 | 57 | 1007.7 |
| 20260904190704 | 27 | 78 | 3.2 | 11.3 | 0.00 | 0.03 | 0.00 | 59 | 1007.7 |
| 20260904190204 | 27 | 310 | 1.6 | 4.8 | 0.00 | 0.03 | 0.00 | 59 | 1007.7 |
| 20260904185204 | 27 | 301 | 1.6 | 3.2 | 0.00 | 0.03 | 0.00 | 61 | 1007.8 |
| 20260904183705 | 27 | 49 | 1.6 | 4.8 | 0.00 | 0.03 | 0.00 | 59 | 1008.0 |
| 20260904182705 | 27 | 214 | 3.2 | 9.7 | 0.00 | 0.03 | 0.00 | 59 | 1008.1 |
| 20260904180708 | 26 | 77 | 1.6 | 12.9 | 0.00 | 0.03 | 0.00 | 63 | 1008.1 |
| 20260904180204 | 26 | 251 | 1.6 | 4.8 | 0.00 | 0.03 | 0.00 | 62 | 1008.1 |
| 20260904175704 | 26 | 268 | 3.2 | 9.7 | 0.00 | 0.03 | 0.00 | 62 | 1008.1 |
| 20260904173704 | 26 | 345 | 1.6 | 4.8 | 0.00 | 0.03 | 0.00 | 62 | 1008.0 |
| 20260904173204 | 26 | 249 | 3.2 | 8.0 | 0.00 | 0.03 | 0.00 | 62 | 1008.1 |
| 20260904172705 | 26 | 334 | 3.2 | 8.0 | 0.00 | 0.03 | 0.00 | 63 | 1008.1 |
| 20260904170704 | 26 | 343 | 3.2 | 8.0 | 0.00 | 0.03 | 0.00 | 63 | 1008.4 |
| 20260904170204 | 26 | 233 | 1.6 | 4.8 | 0.00 | 0.03 | 0.00 | 66 | 1008.6 |
| 20260904164204 | 25 | 230 | 3.2 | 8.0 | 0.00 | 0.03 | 0.00 | 66 | 1008.5 |
| 20260904163704 | 25 | 254 | 3.2 | 8.0 | 0.00 | 0.03 | 0.00 | 69 | 1008.5 |
| 20260904162704 | 25 | 238 | 3.2 | 8.0 | 0.00 | 0.03 | 0.00 | 71 | 1008.4 |
| 20260904162205 | 25 | 243 | 4.8 | 9.7 | 0.00 | 0.03 | 0.00 | 69 | 1008.5 |
| 20260904161705 | 25 | 310 | 1.6 | 8.0 | 0.00 | 0.03 | 0.00 | 67 | 1008.6 |
| 20260904155204 | 25 | 66 | 3.2 | 9.7 | 0.00 | 0.03 | 0.00 | 71 | 1009.0 |
| 20260904154704 | 25 | 214 | 3.2 | 8.0 | 0.00 | 0.03 | 0.00 | 72 | 1009.0 |
| 20260904152704 | 24 | 59 | 1.6 | 8.0 | 0.00 | 0.03 | 0.00 | 77 | 1009.2 |
| 20260904151204 | 24 | 178 | 0.0 | 8.0 | 0.00 | 0.03 | 0.00 | 78 | 1009.2 |
| 20260904150704 | 23 | 79 | 1.6 | 8.0 | 0.00 | 0.03 | 0.00 | 79 | 1009.2 |
| 20260904145704 | 23 | 303 | 1.6 | 8.0 | 0.00 | 0.03 | 0.00 | 81 | 1009.2 |
| 20260904144704 | 23 | 247 | 1.6 | 4.8 | 0.00 | 0.03 | 0.00 | 82 | 1009.3 |
| 20260904144204 | 22 | 63 | 4.8 | 9.7 | 0.00 | 0.03 | 0.00 | 82 | 1009.4 |
| 20260904143705 | 22 | 54 | 1.6 | 8.0 | 0.00 | 0.03 | 0.00 | 85 | 1009.4 |
| 20260904143204 | 22 | 242 | 1.6 | 4.8 | 0.00 | 0.03 | 0.00 | 86 | 1009.5 |
| 20260904142204 | 21 | 67 | 1.6 | 4.8 | 0.00 | 0.03 | 0.00 | 90 | 1009.6 |
| 20260904141704 | 21 | 259 | 0.0 | 4.8 | 0.00 | 0.03 | 0.00 | 90 | 1009.6 |
| 20260904140204 | 21 | 240 | 3.2 | 8.0 | 0.00 | 0.03 | 0.00 | 93 | 1009.7 |
| 20260904135704 | 21 | 315 | 0.0 | 0.0 | 0.00 | 0.03 | 0.00 | 95 | 1009.7 |
| 20260904135205 | 20 | 313 | 0.0 | 4.8 | 0.00 | 0.03 | 0.00 | 96 | 1009.7 |
| 20260904133704 | 20 | 239 | 0.0 | 1.6 | 0.00 | 0.03 | 0.00 | 97 | 1009.7 |
| 20260904131204 | 19 | 128 | 0.0 | 1.6 | 0.00 | 0.03 | 0.00 | 98 | 1009.8 |
| 20260904130704 | 19 | 62 | 0.0 | 1.6 | 0.00 | 0.03 | 0.00 | 98 | 1009.9 |
| 20260904130204 | 19 | 62 | 0.0 | 1.6 | 0.00 | 0.03 | 0.00 | 98 | 1009.8 |
| 20260904125704 | 19 | 63 | 0.0 | 0.0 | 0.00 | 0.03 | 0.00 | 98 | 1009.9 |
| 20260904123704 | 19 | 63 | 0.0 | 0.0 | 0.00 | 0.03 | 0.00 | 99 | 1009.9 |
| 20260904122704 | 18 | 63 | 0.0 | 0.0 | 0.00 | 0.03 | 0.00 | 98 | 1009.9 |
| 20260904120204 | 18 | 63 | 0.0 | 3.2 | 0.00 | 0.03 | 0.00 | 98 | 1009.7 |
| 20260904113704 | 18 | 61 | 0.0 | 0.0 | 0.00 | 0.03 | 0.00 | 99 | 1009.9 |
| 20260904113204 | 18 | 61 | 0.0 | 0.0 | 0.00 | 0.03 | 0.00 | 98 | 1009.9 |
| 20260904112204 | 18 | 63 | 0.0 | 0.0 | 0.00 | 0.03 | 0.00 | 99 | 1009.8 |
| 20260904111704 | 18 | 63 | 0.0 | 0.0 | 0.00 | 0.03 | 0.00 | 99 | 1009.8 |
| 20260904111204 | 18 | 63 | 0.0 | 0.0 | 0.00 | 0.03 | 0.00 | 99 | 1009.8 |
| 20260904110704 | 18 | 63 | 0.0 | 0.0 | 0.00 | 0.03 | 0.00 | 98 | 1009.8 |
| 20260904110204 | 18 | 63 | 0.0 | 0.0 | 0.00 | 0.03 | 0.00 | 98 | 1009.7 |
| 20260904104204 | 18 | 63 | 0.0 | 0.0 | 0.00 | 0.03 | 0.00 | 99 | 1009.6 |
| 20260904103704 | 18 | 63 | 0.0 | 0.0 | 0.00 | 0.03 | 0.00 | 98 | 1009.4 |
| 20260904102704 | 18 | 63 | 0.0 | 0.0 | 0.00 | 0.03 | 0.00 | 98 | 1009.4 |
| 20260904101704 | 18 | 63 | 0.0 | 0.0 | 0.00 | 0.03 | 0.00 | 98 | 1009.5 |
| 20260904100704 | 18 | 65 | 0.0 | 0.0 | 0.00 | 0.03 | 0.00 | 98 | 1009.4 |
| 20260904100204 | 18 | 65 | 0.0 | 0.0 | 0.00 | 0.05 | 0.00 | 98 | 1009.3 |
| 20260904095704 | 18 | 65 | 0.0 | 0.0 | 0.00 | 0.05 | 0.00 | 98 | 1009.3 |
| 20260904094203 | 18 | 65 | 0.0 | 0.0 | 0.00 | 0.05 | 0.00 | 98 | 1009.4 |
| 20260904092204 | 18 | 65 | 0.0 | 0.0 | 0.00 | 0.08 | 0.00 | 98 | 1009.4 |
| 20260904090704 | 18 | 65 | 0.0 | 0.0 | 0.00 | 0.10 | 0.00 | 98 | 1009.3 |
| 20260904090204 | 18 | 65 | 0.0 | 0.0 | 0.00 | 0.10 | 0.00 | 98 | 1009.2 |
| 20260904085704 | 18 | 65 | 0.0 | 0.0 | 0.00 | 0.10 | 0.00 | 98 | 1009.3 |
| 20260904084203 | 18 | 65 | 0.0 | 0.0 | 0.00 | 0.10 | 0.00 | 98 | 1009.3 |
| 20260904083704 | 18 | 65 | 0.0 | 0.0 | 0.00 | 0.10 | 0.00 | 98 | 1009.2 |
| 20260904083203 | 18 | 65 | 0.0 | 0.0 | 0.00 | 0.10 | 0.00 | 98 | 1009.3 |
| 20260904082204 | 18 | 65 | 0.0 | 0.0 | 0.00 | 0.10 | 0.00 | 98 | 1009.5 |
| 20260904081204 | 18 | 65 | 0.0 | 0.0 | 0.00 | 0.13 | 0.00 | 98 | 1009.6 |
| 20260904075704 | 18 | 65 | 0.0 | 0.0 | 0.00 | 0.23 | 0.00 | 98 | 1009.7 |
| 20260904075203 | 18 | 65 | 0.0 | 0.0 | 0.00 | 0.23 | 0.00 | 98 | 1009.6 |
| 20260904074704 | 18 | 65 | 0.0 | 0.0 | 0.00 | 0.23 | 0.00 | 98 | 1009.6 |
| 20260904074204 | 18 | 65 | 0.0 | 0.0 | 0.00 | 0.23 | 0.00 | 98 | 1009.5 |
| 20260904073204 | 18 | 65 | 0.0 | 0.0 | 0.00 | 0.23 | 0.00 | 98 | 1009.5 |
| 20260904072704 | 18 | 65 | 0.0 | 0.0 | 0.00 | 0.23 | 0.00 | 98 | 1009.5 |
| 20260904071704 | 18 | 65 | 0.0 | 0.0 | 0.00 | 0.23 | 0.00 | 98 | 1009.7 |
| 20260904065704 | 18 | 65 | 0.0 | 0.0 | 0.00 | 0.23 | 0.00 | 98 | 1009.8 |
| 20260904065204 | 18 | 65 | 0.0 | 0.0 | 0.00 | 0.23 | 0.00 | 98 | 1009.9 |
| 20260904064703 | 18 | 65 | 0.0 | 0.0 | 0.00 | 0.23 | 0.00 | 98 | 1009.9 |
| 20260904063704 | 18 | 65 | 0.0 | 0.0 | 0.00 | 0.23 | 0.00 | 97 | 1009.9 |
| 20260904062203 | 18 | 65 | 0.0 | 0.0 | 0.00 | 0.23 | 0.00 | 97 | 1010.0 |
| 20260904061204 | 18 | 65 | 0.0 | 0.0 | 0.00 | 0.23 | 0.00 | 97 | 1010.2 |
| 20260904055704 | 18 | 65 | 0.0 | 0.0 | 0.00 | 0.23 | 0.00 | 97 | 1010.5 |
| 20260904055204 | 18 | 65 | 0.0 | 0.0 | 0.00 | 0.23 | 0.00 | 97 | 1010.5 |
| 20260904054703 | 18 | 65 | 0.0 | 0.0 | 0.00 | 0.23 | 0.00 | 97 | 1010.5 |
| 20260904054204 | 18 | 65 | 0.0 | 0.0 | 0.00 | 0.23 | 0.00 | 97 | 1010.5 |
| 20260904053703 | 18 | 65 | 0.0 | 0.0 | 0.00 | 0.23 | 0.00 | 97 | 1010.5 |
| 20260904053203 | 18 | 65 | 0.0 | 0.0 | 0.00 | 0.23 | 0.00 | 97 | 1010.6 |
| 20260904052704 | 19 | 65 | 0.0 | 0.0 | 0.00 | 0.23 | 0.00 | 97 | 1010.6 |
| 20260904051203 | 19 | 65 | 0.0 | 0.0 | 0.00 | 0.23 | 0.00 | 97 | 1010.9 |
| 20260904050204 | 19 | 65 | 0.0 | 0.0 | 0.00 | 0.23 | 0.00 | 97 | 1010.8 |
| 20260904045704 | 19 | 65 | 0.0 | 0.0 | 0.00 | 0.23 | 0.00 | 97 | 1010.7 |
| 20260904045204 | 19 | 65 | 0.0 | 0.0 | 0.00 | 0.23 | 0.00 | 97 | 1010.7 |
| 20260904044204 | 19 | 63 | 0.0 | 0.0 | 0.00 | 0.23 | 0.00 | 97 | 1010.8 |
| 20260904043703 | 19 | 63 | 0.0 | 0.0 | 0.00 | 0.23 | 0.00 | 97 | 1010.8 |
| 20260904042703 | 19 | 63 | 0.0 | 0.0 | 0.00 | 0.23 | 0.00 | 97 | 1011.0 |
| 20260904042204 | 19 | 63 | 0.0 | 0.0 | 0.00 | 0.23 | 0.00 | 97 | 1010.9 |
| 20260904035703 | 19 | 63 | 0.0 | 0.0 | 0.00 | 0.23 | 0.23 | 97 | 1011.2 |
| 20260904034703 | 19 | 63 | 0.0 | 1.6 | 0.00 | 0.23 | 0.23 | 97 | 1011.3 |
| 20260904032704 | 19 | 63 | 0.0 | 1.6 | 0.00 | 0.23 | 0.23 | 97 | 1011.3 |